TimeEDT,TemperatureF,Dew PointF,Humidity,Sea Level PressureIn,VisibilityMPH,Wind Direction,Wind SpeedMPH,Gust SpeedMPH,PrecipitationIn,Events,Conditions,WindDirDegrees,DateUTC
12:53 AM,52.0,48.9,89,29.96,10.0,Calm,Calm,-,N/A,,Partly Cloudy,0,2013-10-17 04:53:00
1:53 AM,52.0,48.0,86,29.97,10.0,NNW,10.4,-,N/A,,Overcast,330,2013-10-17 05:53:00
2:53 AM,51.1,45.0,80,29.96,10.0,NNW,4.6,-,N/A,,Mostly Cloudy,340,2013-10-17 06:53:00
3:53 AM,50.0,45.0,83,29.95,10.0,Calm,Calm,-,N/A,,Clear,0,2013-10-17 07:53:00
4:53 AM,48.0,44.1,86,29.94,10.0,Calm,Calm,-,N/A,,Clear,0,2013-10-17 08:53:00
5:53 AM,48.0,45.0,89,29.94,10.0,Calm,Calm,-,N/A,,Scattered Clouds,0,2013-10-17 09:53:00
6:53 AM,48.0,46.0,93,29.96,10.0,WNW,6.9,-,N/A,,Overcast,300,2013-10-17 10:53:00
7:53 AM,48.9,46.0,90,29.94,10.0,NNW,4.6,-,N/A,,Overcast,330,2013-10-17 11:53:00
8:53 AM,50.0,45.0,83,29.96,10.0,Calm,Calm,-,0.00,,Overcast,0,2013-10-17 12:53:00
9:53 AM,50.0,46.0,86,30.00,7.0,WNW,5.8,-,0.01,Rain,Light Rain,290,2013-10-17 13:53:00
10:38 AM,50.0,46.4,87,29.98,2.5,WNW,5.8,-,0.04,Rain,Rain,290,2013-10-17 14:38:00
10:46 AM,50.0,46.4,87,29.98,3.0,WNW,4.6,-,0.05,Rain,Rain,290,2013-10-17 14:46:00
10:53 AM,50.0,46.0,86,29.99,7.0,WNW,4.6,-,0.05,Rain,Light Rain,290,2013-10-17 14:53:00
11:10 AM,51.8,46.4,82,29.97,10.0,Calm,Calm,-,0.00,,Overcast,0,2013-10-17 15:10:00
11:53 AM,52.0,46.9,83,29.96,10.0,Calm,Calm,-,0.00,Rain,Light Rain,0,2013-10-17 15:53:00
12:51 PM,55.4,50.0,82,29.96,10.0,SW,5.8,-,0.00,,Mostly Cloudy,220,2013-10-17 16:51:00
12:53 PM,55.9,50.0,80,29.95,10.0,SSW,6.9,-,0.00,,Mostly Cloudy,200,2013-10-17 16:53:00
1:03 PM,55.4,48.2,77,29.96,10.0,SW,6.9,-,N/A,,Mostly Cloudy,230,2013-10-17 17:03:00
1:53 PM,57.0,48.0,72,29.95,10.0,West,8.1,-,N/A,,Overcast,260,2013-10-17 17:53:00
2:10 PM,57.2,46.4,67,29.94,10.0,West,10.4,-,N/A,,Mostly Cloudy,260,2013-10-17 18:10:00
2:27 PM,59.0,46.4,63,29.94,10.0,West,12.7,-,N/A,,Mostly Cloudy,270,2013-10-17 18:27:00
2:34 PM,57.2,44.6,63,29.94,10.0,West,13.8,-,N/A,,Mostly Cloudy,280,2013-10-17 18:34:00
2:53 PM,57.0,45.0,64,29.94,10.0,West,13.8,20.7,N/A,,Mostly Cloudy,270,2013-10-17 18:53:00
3:53 PM,57.9,45.0,62,29.94,10.0,West,10.4,-,N/A,,Overcast,280,2013-10-17 19:53:00
4:53 PM,61.0,44.1,54,29.94,10.0,WNW,8.1,-,N/A,,Mostly Cloudy,290,2013-10-17 20:53:00
5:53 PM,57.9,44.1,60,29.95,10.0,WNW,8.1,-,N/A,,Overcast,290,2013-10-17 21:53:00
6:53 PM,55.9,44.1,64,29.96,10.0,West,6.9,-,N/A,,Clear,260,2013-10-17 22:53:00
7:53 PM,54.0,44.1,69,29.98,10.0,West,8.1,-,N/A,,Clear,270,2013-10-17 23:53:00
8:53 PM,51.1,44.1,77,30.00,10.0,West,3.5,-,N/A,,Clear,270,2013-10-18 00:53:00
9:53 PM,51.1,44.1,77,30.01,10.0,Calm,Calm,-,N/A,,Clear,0,2013-10-18 01:53:00
10:53 PM,48.0,45.0,89,30.03,10.0,Calm,Calm,-,N/A,,Clear,0,2013-10-18 02:53:00
11:53 PM,46.0,44.1,93,30.02,8.0,Calm,Calm,-,N/A,,Clear,0,2013-10-18 03:53:00